Location: Unspecified
(0.0000°N, 0.0000°E)
Time: 19:01:26
(UTC+00:00)

Courier 1B - Pass Details

Date: 24 November 2019
Orbit: 963 x 1209 km, 28.3° (Epoch: 06 December)

Event Time Altitude Azimuth Distance (km) Brightness Sun altitude
Rises 01:33:00 0° 262° (W) 4,103 - -56.9°
Reaches altitude 10° 01:36:15 10° 272° (W) 3,126 - -56.3°
Maximum altitude 01:42:58 32° 331° (NNW) 1,901 - -54.9°
Drops below altitude 10° 01:49:29 10° 32° (NNE) 3,007 - -53.6°
Sets 01:52:33 0° 42° (NE) 3,927 - -53.0°
